User: anonymous
Location: La Vergne
(36.0160°N, 86.5820°W)
Time: 13:21:56
(UTC-05:00)
Language:

Cosmos 1703 Rocket - Orbit

View from above orbital plane
View from above orbital plane
View from above satellite
View from above satellite

Ground track
Ground track

The orbit data is extracted from the following two-line orbital elements,

1 16263U 85108B   14293.48814156  .00000681  00000-0  81756-4 0  8014
2 16263 082.5015 304.7313 0018780 306.0779 165.8618 14.82499246560531
Epoch (UTC): 20 October 2014 11:42:55
Eccentricity: 0.0018780
inclination: 82.5015°
perigee height: 608 km
apogee height: 634 km
right ascension of ascending node: 304.7313°
argument of perigee: 306.0779°
revolutions per day: 14.82499246
mean anomaly at epoch: 165.8618°
orbit number at epoch: 56053

The dashed part of the orbit path shows where the satellite is in the earth's shadow,  

DLR